Battle Creek, MI

8:54 PM EDT on October 16, 2019 (GMT -0400)
Kellogg

Weather History for KBTL - July, 2019

Change the Weather History Date:

Thursday, July 25, 2019

  Actual Average Record
Temperature  
Mean Temperature 70 °F 71 °F  
Max Temperature 82 °F 82 °F 91 °F (2005)
Min Temperature 59 °F 59 °F 51 °F (2003)
Degree Days  
Heating Degree Days 0 0  
Month to date heating degree days 6  
Since 1 June heating degree days 63  
Since 1 July heating degree days 6  
Cooling Degree Days 6 6  
Month to date cooling degree days 162  
Year to date cooling degree days 326  
Since 1 June cooling degree days 288  
Growing Degree Days 20 (Base 50)    
Moisture  
Dew Point 58 °F    
Average Humidity 64    
Maximum Humidity 87    
Minimum Humidity 42    
Precipitation  
Precipitation 0.00 in 0.11 in 1.37 in (2010)
Month to date precipitation 2.69  
Year to date precipitation 17.40  
Sea Level Pressure  
Sea Level Pressure 30.19 in    
Wind  
Wind Speed 3 mph (WSW)    
Max Wind Speed 9 mph    
Max Gust Speed -    
Visibility 10 miles    
Events      
T = Trace of Precipitation, MM = Missing Value Source: NWS Daily Summary

Daily Weather History Graph

Daily Weather History Graph

Search for Another Location

Airport or City:

Astronomy

Jul. 25, 2019 Rise Set
Actual Time 6:26 AM EDT 9:07 PM EDT
Civil Twilight 5:53 AM EDT 9:40 PM EDT
Nautical Twilight 5:13 AM EDT 10:21 PM EDT
Astronomical Twilight 4:26 AM EDT 11:07 PM EDT
Moon 1:14 AM EDT (7/25) 2:45 PM EDT (7/25)
Length of Visible Light 15h 46m
Length of Day
14h 41m
Last Quarter, 44% of the Moon is Illuminated
Jul 25
Last Quarter
Jul 31
New
Aug 7
First Quarter
Aug 15
Full
Aug 23
Last Quarter

Hourly Weather History & Observations

Time (EDT) Temp. Heat Index Dew Point Humidity Pressure Visibility Wind Dir Wind Speed Gust Speed Precip Events Conditions
12:53 AM 63.0 °F - 55.9 °F 78% 30.15 in 10.0 mi Calm Calm - N/A   Clear
1:53 AM 62.1 °F - 55.0 °F 78% 30.15 in 10.0 mi Calm Calm - N/A   Clear
2:53 AM 62.1 °F - 54.0 °F 75% 30.15 in 10.0 mi SSW 3.5 mph - N/A   Clear
3:53 AM 59.0 °F - 54.0 °F 83% 30.15 in 10.0 mi Calm Calm - N/A   Clear
4:53 AM 59.0 °F - 54.0 °F 83% 30.16 in 10.0 mi Calm Calm - N/A   Clear
5:53 AM 59.0 °F - 55.0 °F 87% 30.18 in 10.0 mi Calm Calm - N/A   Clear
6:53 AM 59.0 °F - 55.0 °F 87% 30.19 in 10.0 mi Calm Calm - N/A   Clear
7:53 AM 62.1 °F - 57.9 °F 86% 30.20 in 10.0 mi Calm Calm - N/A   Clear
8:53 AM 66.9 °F - 57.9 °F 73% 30.22 in 10.0 mi WSW 3.5 mph - N/A   Clear
9:53 AM 73.0 °F - 57.0 °F 57% 30.22 in 10.0 mi West 6.9 mph - N/A   Clear
10:53 AM 75.0 °F - 57.9 °F 55% 30.23 in 10.0 mi WNW 5.8 mph - N/A   Clear
11:53 AM 78.1 °F - 57.0 °F 48% 30.22 in 10.0 mi WSW 9.2 mph - N/A   Clear
12:53 PM 79.0 °F - 57.0 °F 47% 30.22 in 10.0 mi Variable 6.9 mph - N/A   Clear
1:53 PM 81.0 °F 81.0 °F 57.0 °F 44% 30.21 in 10.0 mi West 9.2 mph - N/A   Clear
2:53 PM 81.0 °F 81.0 °F 57.0 °F 44% 30.20 in 10.0 mi WSW 6.9 mph - N/A   Clear
3:53 PM 81.0 °F 81.1 °F 57.9 °F 45% 30.19 in 10.0 mi WSW 3.5 mph - N/A   Clear
4:53 PM 82.9 °F 82.6 °F 57.9 °F 42% 30.18 in 10.0 mi WSW 9.2 mph - N/A   Scattered Clouds
5:53 PM 82.9 °F 82.8 °F 59.0 °F 44% 30.18 in 10.0 mi West 6.9 mph - N/A   Clear
6:53 PM 81.0 °F 81.3 °F 59.0 °F 47% 30.17 in 10.0 mi WSW 8.1 mph - N/A   Clear
7:53 PM 79.0 °F - 61.0 °F 54% 30.17 in 10.0 mi SW 8.1 mph - N/A   Clear
8:53 PM 75.0 °F - 61.0 °F 62% 30.18 in 10.0 mi SSW 5.8 mph - N/A   Clear
9:53 PM 72.0 °F - 61.0 °F 68% 30.19 in 10.0 mi SSW 5.8 mph - N/A   Clear
10:53 PM 69.1 °F - 61.0 °F 75% 30.20 in 10.0 mi WSW 4.6 mph - N/A   Clear
11:53 PM 69.1 °F - 61.0 °F 75% 30.21 in 10.0 mi WSW 3.5 mph - N/A   Clear